Showing default

MACSAT, 58024

Orbit data source: Space-Track

MACSAT, 58024 is a payload satellite owned by OQ Tech (LU) in SSO that was launched on Mon, 09 Oct 2023 UTC via a VEGA launch vehicle from the French Guiana (FRGUI). Payload-class satellites include a variety of spacecraft equipped with specific instruments for various scientific and technological missions. These include communications satellites like Starlink; space stations such as the ISS; scientific satellites like the Hubble; Earth observation satellites from companies like Planet Labs, Umbra, and HawkEye 360; GPS; miniature CubeSats for education and research; and military/defense satellites.

Loading next visibility...
Identifier
58024, 2023-155J
Orbit
SSO
Country
Flag of UnknownUnknown / LUXE
Related business
Manufacturer
NanoAvionics
Mission
Operational Commercial Communications
Bus & Motor
CUBESAT 6U, Unknown motor
Mass
~10 kg wet, ~10 kg dry
Launch date (UTC)
2023-10-09 (2 years ago)
Launch vehicle
VEGA
Launch site
French Guiana (FRGUI)
Object type
Payload
Rocket body
Debris
Shape & HBR
Box + 2 Pan, 0.3 m
Radar Cross Section
0.098 m², Small (<0.1 m²)

Expand to show TLE details & history
Last TLE update: 16 hours ago

TLE from 16 hours ago
0 MACSAT
1 58024U 23155J   25307.66794779  .00005311  00000-0  26369-3 0  9996
2 58024  97.5996  23.6090 0003932 118.6403 241.5226 15.18119913114081
Epoch: 2025-11-03T16:01Z
TLE epoch observation values (Epoch: 2025-11-03T16:01:50.689Z)
Latitude
-0.00004°
Longitude
99.98178°
Altitude
515.898 km
Speed
7.605 km/s
True Right ascension
01h 34m 26s
True Declination
0° 00' 00"
Sunlit
Object was in full shadow at epoch
Visualization orbit readout
Latitude
Unknown
Longitude
Unknown
Altitude
Unknown
Speed
Unknown
Apparent Right ascension
Unknown
Apparent Declination
Unknown
Sunlit
N/A
Visualization observer readout
Local Sidereal Time
03:53:53
Azimuth
Unknown
Elevation
Unknown
Doppler factor
Unknown
Orbital elements
Apogee altitude
511.208 km
Perigee altitude
505.792 km
Semi-major axis
6,886.637 km
Eccentricity
0.00039
Inclination
97.5996°
RAAN
23.609°
Arg. of periapsis
118.6403°
True anomaly
241.483°
Mean anomaly
241.5226°
Eccentric anomaly
241.5028°
Mean motion
3.7978 °/min
Orbital period
94.79 mins
BSTAR
0.00026369
Loading maneuver chart data...
Computing Atmospheric mass density...
Loading historical data...
Loading historical data...
Loading historical data...
Loading historical data...
Loading historical data...
Loading historical data...
Loading historical data...

Documentation

Showing up to 5 results
|